Regional Weather Roundup
Issued by NWS

Home | Current Version | Previous Version | Text Only | Print | Product List | Glossary Off
Versions: 1 2 3 4 5 6 7 8 9 10 11 12 13 14 15 16 17 18 19 20 21 22 23 24 25 26 27 28 29 30 31 32 33 34 35 36 37 38 39 40 41 42 43 44 45 46 47 48 49 50

000
ASUS45 KCYS 241310
RWRWY

WYOMING REGIONAL WEATHER ROUNDUP
NATIONAL WEATHER SERVICE CHEYENNE WY
700 AM MDT TUE MAY 24 2016

NOTE:  "FAIR" INDICATES FEW OR NO CLOUDS BELOW 12,000 FEET
WITH NO SIGNIFICANT WEATHER AND/OR OBSTRUCTIONS TO VISIBILITY.

WYZ001-241400-
YELLOWSTONE NATIONAL PARK

CITY           SKY/WX    TMP DP  RH WIND       PRES   REMARKS
LK YELLOWSTONE   N/A     30  27  88 CALM      29.97S
W YELLOWSTONE  NOT AVBL

$$
WYZ002>013-054>058-071-098>099-241400-
NORTHERN WYOMING

CITY           SKY/WX    TMP DP  RH WIND       PRES   REMARKS
JACKSON        SUNNY     30  30 100 CALM      29.95R
CODY           FAIR      39  36  87 CALM      29.91R
GREYBULL       FAIR      41  31  67 SE6       29.89R
WORLAND        FAIR      43  34  70 CALM      29.89S
SHERIDAN       FAIR      41  34  76 CALM      29.91S
BUFFALO        FAIR      47  33  58 CALM      29.92S
GILLETTE       FAIR      43  36  76 CALM      29.91R
HULETT         FAIR      46  36  66 CALM      29.92R
NEWCASTLE      FAIR      45  30  57 N3        29.91R

$$
WYZ014>020-022>026-101>103-241400-
CENTRAL WYOMING

CITY           SKY/WX    TMP DP  RH WIND       PRES   REMARKS
BIG PINEY      CLOUDY    32  29  88 SW3       29.97R
PINEDALE       FAIR      30  28  93 W3        29.97S
DUBOIS         PTSUNNY   32  27  80 NW5       29.95S WCI  27
LANDER         FAIR      44  25  47 W3        29.90S
RIVERTON       FAIR      45  30  55 N6        29.91S
CASPER         FAIR      39  34  82 CALM      29.93S
DOUGLAS        FAIR      41  35  79 CALM      29.93S

$$
WYZ021-027>030-104>119-241400-
SOUTHERN WYOMING

CITY           SKY/WX    TMP DP  RH WIND       PRES   REMARKS
EVANSTON       CLOUDY    40  31  70 NW9       29.92S WCI  34
KEMMERER       LGT RAIN  37  32  81 N10       29.96R WCI  30
FORT BRIDGER   PTSUNNY   41  37  87 NE7       29.96S
ROCK SPRINGS   FAIR      40  34  79 NE5       29.94S
DIXON          FAIR      39  32  77 SE3       29.97R
RAWLINS        FAIR      38  33  82 N5        29.97S WCI  34
SARATOGA       FAIR      37  32  81 CALM      29.98R
LARAMIE        FAIR      34  32  92 SW3       29.98S
CHEYENNE       FAIR      44  37  76 W6        29.97R
TORRINGTON     FAIR      42  40  92 SE6       29.91R
PINE BLUFFS    FAIR      41  39  93 CALM      29.96R

$$



USA.gov is the U.S. government's official web portal to all federal, state and local government web resources and services.